GRUS-1E (47935 NORAD) Tracking and Keplerian Element Data

This shows tracking and keplerian element data for the satellite.

Feedback or suggestion? Click here.




ElementValue
Catalog47935
NameGRUS-1E
Epoch Orbit1365
Epoch Day172.79677563
Epoch Year2021
RAAN75.2895
Inclination97.7254
Eccentricity0.0018553
Argument of Perigee299.7019
Mean Anonmoly60.2354
Mean Motion14.93063588
Decay Rate2.36E-06
L11 47935U 21022D 21172.79677563 .00000236 00000-0 28084-4 0 9995
L22 47935 97.7254 75.2895 0018553 299.7019 60.2354 14.93063588 13651

Live tracking and technical data element details for GRUS-1E (NORAD 47935). GRUS-1E can be tracked NOW for your location showing map with azimuth and elevation plus other details from your city location.

Track the satellite on the map from your city or location and see movement details for azimuth, elevation, latitude, longitude, range, height, and movement on the map or in text.







IsCatalogInMostPopularTable: catalog: 47935, numindb: 42
Update: records affected: 1



GetName: 47935 GRUS-1E

Hit Count: updated at: Thu, 24 Jun 2021 03:28:28 GMT